Powrót do katalogu

FENGYUN 1C DEB

LostSSO
NORAD 36677·DEBRIS·🇨🇳 China

Wystrzelony May 10, 1999 z Taiyuan Satellite Launch Center

Loading…

Następne Przeloty (najbliższe 24 godziny)

TLE

NieaktualneSource: Space-Track

Epoka: Mar 4, 2025, 08:49 UTC

1 36677U 99025DYX 25063.36777956  .00004167  00000-0  20532-2 0  9992
2 36677  98.7254 115.2600 0058676 321.5697  98.3206 14.17166357602788

Śledź FENGYUN 1C DEB w czasie rzeczywistym z AllMySat

Download on the App Store